Regional Weather Roundup
Issued by NWS

Home | Current Version | Previous Version | Text Only | Print | Product List | Glossary On
Versions: 1 2 3 4 5 6 7 8 9 10 11 12 13 14 15 16 17 18 19 20 21 22 23 24 25 26 27 28 29 30 31 32 33 34 35 36 37 38 39 40 41 42 43 44 45 46 47 48 49 50
000
ASUS43 KTOP 060408
RWRKS

WEATHER ROUNDUP FOR KANSAS
NATIONAL WEATHER SERVICE GOODLAND KS
1100 PM CDT SUN JUL 05 2015

NOTE:  "FAIR" INDICATES FEW OR NO CLOUDS BELOW 12,000 FEET WITH NO
SIGNIFICANT WEATHER AND/OR OBSTRUCTIONS TO VISIBILITY.

KSZ001>006-013>018-027>032-041>047-060500-
NORTHWEST KANSAS

CITY           SKY/WX    TMP DP  RH WIND       PRES   REMARKS
GOODLAND       LGT RAIN  70  64  81 NW21G31   29.90R
HAYS           MOCLDY    84  61  45 S17G26    29.82R
HILL CITY      MOCLDY    87  62  43 S16G24    29.80R
RUSSELL        CLOUDY    83  63  50 S17       29.81R
$$

KSZ061>065-074>080-084>089-060500-
SOUTHWEST KANSAS

CITY           SKY/WX    TMP DP  RH WIND       PRES   REMARKS
DODGE CITY     MOCLDY    81  61  50 S17       29.88R
ELKHART          N/A     76  56  50 S9          N/A
GARDEN CITY    CLOUDY    80  65  59 S15       29.86R
GREAT BEND     MOCLDY    81  63  54 S13       29.86R
LIBERAL        MOCLDY    77  61  57 SE10      29.90R
PRATT          MOCLDY    82  63  51 S14G21    29.89R
$$

KSZ066>073-081>083-090>101-060500-
SOUTHEAST KANSAS

CITY           SKY/WX    TMP DP  RH WIND       PRES   REMARKS
CHANUTE        MOCLDY    79  75  87 SE9       29.93S
COFFEYVILLE    PTCLDY    82  73  74 S9        29.93S
HUTCHINSON     CLOUDY    86  67  52 S22G29    29.87R
MEDICINE LODGE   N/A     85  69  58 S12G22    29.87R
NEWTON         MOCLDY    84  66  54 S18       29.91R
PARSONS        PTCLDY    83  73  72 S9        29.94F
WICHITA INTL   MOCLDY    85  70  60 S22G29    29.88R
WICHITA JABRA  PTCLDY    84  70  62 S16       29.89R
WICHITA MCCONL PTCLDY    85  71  64 SE15G25   29.90R
WINFIELD       PTCLDY    83  71  67 S17G25    29.93R
$$

KSZ007>012-019>026-033>040-048>060-102>105-060500-
NORTHEAST KANSAS

CITY           SKY/WX    TMP DP  RH WIND       PRES   REMARKS
CONCORDIA      CLOUDY    86  63  45 S15       29.81R
EMPORIA        CLEAR     82  72  71 S17G26    29.89R
LAWRENCE       CLEAR     82  74  76 S13       29.89R
MANHATTAN      CLEAR     86  71  60 S14G26    29.83R
MARYSVILLE     PTCLDY    82  72  69 S14G24    29.82R
OLATHE IND     CLEAR     79  69  71 S16       29.90F
OLATHE EXE     CLEAR     77  69  76 S13       29.90F
SALINA         CLOUDY    88  65  46 S15G23    29.83R
TOPEKA BILLARD CLEAR     84  73  69 S15G22    29.86S
TOPEKA FORBES  CLEAR     84  73  69 S13G22    29.87S
$$



USA.gov is the U.S. government's official web portal to all federal, state and local government web resources and services.